OK1FET-15 Weather Reports


Display with metric or nautical units.
time (UTC)temp
F
wind
direction
speed
MPH
gust
MPH
rain 1hr
in
rain 24hr
in
rain mn
in
humidity
%
barometer
mb
20260905210016 55 225 0.0 0.0 0.00 0.00 0.00 100 1024.0
20260905205509 55 225 0.0 1.0 0.00 0.00 0.00 100 1024.0
20260905205001 56 225 0.0 0.0 0.00 0.00 0.00 100 1023.9
20260905204454 56 241 0.0 0.0 0.00 0.00 0.00 100 1023.9
20260905203947 56 238 0.0 1.0 0.00 0.00 0.00 100 1023.9
20260905203439 56 244 0.0 0.0 0.00 0.00 0.00 100 1023.8
20260905202932 57 270 0.0 2.0 0.00 0.00 0.00 100 1023.7
20260905202425 57 161 0.0 2.0 0.00 0.00 0.00 100 1023.7
20260905201918 57 125 0.0 1.0 0.00 0.00 0.00 100 1023.7
20260905201410 57 135 0.0 0.0 0.00 0.00 0.00 100 1023.7
20260905200903 57 161 0.0 0.0 0.00 0.00 0.00 100 1023.6
20260905200356 58 180 0.0 0.0 0.00 0.00 0.00 100 1023.6
20260905195848 58 180 0.0 0.0 0.00 0.00 0.00 100 1023.5
20260905195341 58 180 0.0 0.0 0.00 0.00 0.00 100 1023.4
20260905194833 58 180 0.0 0.0 0.00 0.00 0.00 100 1023.3
20260905194326 58 203 0.0 0.0 0.00 0.00 0.00 100 1023.3
20260905193819 59 225 0.0 0.0 0.00 0.00 0.00 100 1023.3
20260905193311 59 222 0.0 1.0 0.00 0.00 0.00 100 1023.2
20260905192804 59 170 0.0 0.0 0.00 0.00 0.00 99 1023.1
20260905192257 60 222 0.0 0.0 0.00 0.00 0.00 99 1023.1
20260905191749 60 186 0.0 0.0 0.00 0.00 0.00 97 1023.0
20260905191242 60 153 0.0 2.0 0.00 0.00 0.00 98 1022.9
20260905190734 60 245 1.0 3.0 0.00 0.00 0.00 99 1022.8
20260905190227 61 327 1.0 4.0 0.00 0.00 0.00 98 1022.8
20260905185719 61 156 0.0 2.0 0.00 0.00 0.00 98 1022.7
20260905185212 61 151 0.0 0.0 0.00 0.00 0.00 97 1022.6
20260905184705 61 135 0.0 0.0 0.00 0.00 0.00 97 1022.5
20260905184157 62 135 0.0 0.0 0.00 0.00 0.00 95 1022.4
20260905183650 62 138 0.0 2.0 0.00 0.00 0.00 94 1022.4
20260905183142 62 75 0.0 1.0 0.00 0.00 0.00 94 1022.3
20260905182634 63 26 0.0 0.0 0.00 0.00 0.00 93 1022.2
20260905182127 63 128 0.0 2.0 0.00 0.00 0.00 90 1022.1
20260905181619 64 234 1.0 3.0 0.00 0.00 0.00 89 1022.0
20260905181112 64 273 0.0 2.0 0.00 0.00 0.00 90 1022.0
20260905180604 65 225 0.0 1.0 0.00 0.00 0.00 85 1021.9
20260905180057 65 157 0.0 2.0 0.00 0.00 0.00 89 1021.8
20260905175549 65 166 1.0 3.0 0.00 0.00 0.00 84 1021.7
20260905175041 65 169 1.0 3.0 0.00 0.00 0.00 87 1021.5
20260905174534 65 159 1.0 3.0 0.00 0.00 0.00 85 1021.5
20260905174026 65 171 1.0 4.0 0.00 0.00 0.00 87 1021.3
20260905173518 65 134 1.0 3.0 0.00 0.00 0.00 88 1021.2
20260905173011 65 120 1.0 2.0 0.00 0.00 0.00 86 1021.2
20260905172503 65 94 1.0 3.0 0.00 0.00 0.00 89 1021.1
20260905171956 66 3 0.0 0.0 0.00 0.00 0.00 93 1021.1
20260905171448 66 128 0.0 0.0 0.00 0.00 0.00 91 1021.1
20260905170940 66 336 1.0 2.0 0.00 0.00 0.00 87 1021.1
20260905170433 66 68 0.0 1.0 0.00 0.00 0.00 88 1021.0
20260905165925 66 139 1.0 3.0 0.00 0.00 0.00 86 1021.0
20260905165417 66 73 1.0 2.0 0.00 0.00 0.00 86 1020.8
20260905164910 67 163 0.0 1.0 0.00 0.00 0.00 87 1020.8
20260905164402 67 153 0.0 0.0 0.00 0.00 0.00 89 1020.7
20260905163854 67 180 1.0 2.0 0.00 0.00 0.00 83 1020.7
20260905163347 67 154 0.0 1.0 0.00 0.00 0.00 84 1020.7
20260905162839 67 143 1.0 2.0 0.00 0.00 0.00 77 1020.7
20260905162331 67 145 0.0 1.0 0.00 0.00 0.00 82 1020.6
20260905161823 67 102 0.0 0.0 0.00 0.00 0.00 80 1020.5
20260905161316 67 185 1.0 2.0 0.00 0.00 0.00 76 1020.4
20260905160808 67 211 1.0 5.0 0.00 0.00 0.00 80 1020.5
20260905160300 67 251 1.0 3.0 0.00 0.00 0.00 76 1020.4
20260905155753 68 166 1.0 3.0 0.00 0.00 0.00 76 1020.4
20260905155245 68 195 1.0 2.0 0.00 0.00 0.00 75 1020.3
20260905154737 69 207 1.0 3.0 0.00 0.00 0.00 73 1020.3
20260905154229 69 292 1.0 3.0 0.00 0.00 0.00 72 1020.2
20260905153722 69 184 1.0 3.0 0.00 0.00 0.00 67 1020.2
20260905153214 69 170 1.0 4.0 0.00 0.00 0.00 63 1020.2
20260905152706 69 206 2.0 7.0 0.00 0.00 0.00 66 1020.2
20260905152158 69 235 3.0 9.0 0.00 0.00 0.00 63 1020.3
20260905151650 70 184 1.0 3.0 0.00 0.00 0.00 67 1020.3
20260905151142 70 172 1.0 6.0 0.00 0.00 0.00 65 1020.3
20260905150635 70 148 1.0 3.0 0.00 0.00 0.00 64 1020.3
20260905150127 70 181 2.0 8.0 0.00 0.00 0.00 63 1020.3
20260905145619 71 198 3.0 8.0 0.00 0.00 0.00 60 1020.4
20260905145111 71 208 1.0 4.0 0.00 0.00 0.00 67 1020.1
20260905144603 71 128 2.0 7.0 0.00 0.00 0.00 63 1020.2
20260905144055 72 239 1.0 4.0 0.00 0.00 0.00 62 1020.2
20260905143547 72 208 1.0 5.0 0.00 0.00 0.00 59 1020.2
20260905143039 74 188 2.0 6.0 0.00 0.00 0.00 56 1020.1
20260905142531 76 168 1.0 3.0 0.00 0.00 0.00 50 1020.1
20260905142023 77 187 1.0 4.0 0.00 0.00 0.00 59 1020.2
20260905141515 77 137 2.0 5.0 0.00 0.00 0.00 56 1020.2
20260905141007 76 208 2.0 5.0 0.00 0.00 0.00 59 1020.3
20260905140459 74 180 2.0 6.0 0.00 0.00 0.00 54 1020.4
20260905135951 73 217 2.0 3.0 0.00 0.00 0.00 52 1020.4
20260905135443 72 132 1.0 4.0 0.00 0.00 0.00 61 1020.5
20260905134935 72 173 2.0 4.0 0.00 0.00 0.00 55 1020.5
20260905134427 73 224 2.0 8.0 0.00 0.00 0.00 54 1020.6
20260905133919 75 229 2.0 5.0 0.00 0.00 0.00 51 1020.5
20260905133410 77 172 2.0 3.0 0.00 0.00 0.00 58 1020.5
20260905132902 78 186 3.0 7.0 0.00 0.00 0.00 54 1020.5
20260905132354 80 194 1.0 6.0 0.00 0.00 0.00 50 1020.4
20260905131845 79 141 1.0 4.0 0.00 0.00 0.00 47 1020.6
20260905131337 77 186 1.0 6.0 0.00 0.00 0.00 61 1020.6
20260905130829 77 192 2.0 7.0 0.00 0.00 0.00 53 1020.6
20260905130321 78 177 2.0 4.0 0.00 0.00 0.00 68 1020.6
20260905125813 78 8 1.0 3.0 0.00 0.00 0.00 58 1020.7
20260905125306 75 154 1.0 5.0 0.00 0.00 0.00 69 1020.7
20260905124756 74 188 1.0 5.0 0.00 0.00 0.00 64 1020.8
20260905124248 75 169 2.0 7.0 0.00 0.00 0.00 53 1020.8
20260905123740 75 144 2.0 8.0 0.00 0.00 0.00 66 1020.8
20260905123232 75 191 1.0 5.0 0.00 0.00 0.00 59 1021.0
20260905122724 77 211 2.0 9.0 0.00 0.00 0.00 58 1020.9
20260905122216 77 176 2.0 5.0 0.00 0.00 0.00 66 1021.1
20260905121708 78 272 2.0 4.0 0.00 0.00 0.00 58 1021.0
20260905121159 78 175 2.0 3.0 0.00 0.00 0.00 68 1021.0
20260905120651 75 208 2.0 4.0 0.00 0.00 0.00 69 1021.2
20260905120143 74 205 2.0 5.0 0.00 0.00 0.00 73 1021.1
20260905115635 75 206 2.0 5.0 0.00 0.00 0.00 73 1021.2
20260905115127 76 179 2.0 7.0 0.00 0.00 0.00 55 1021.2
20260905114619 75 190 2.0 6.0 0.00 0.00 0.00 75 1021.1
20260905114111 74 195 2.0 6.0 0.00 0.00 0.00 58 1021.3
20260905113603 75 158 1.0 5.0 0.00 0.00 0.00 72 1021.2
20260905113055 75 200 1.0 2.0 0.00 0.00 0.00 65 1021.3
20260905112547 75 180 2.0 6.0 0.00 0.00 0.00 75 1021.2
20260905112038 75 249 2.0 8.0 0.00 0.00 0.00 53 1021.2
20260905111530 78 128 1.0 5.0 0.00 0.00 0.00 83 1021.2
20260905111022 77 166 2.0 5.0 0.00 0.00 0.00 76 1021.2
20260905110514 77 160 1.0 3.0 0.00 0.00 0.00 83 1021.2
20260905110006 76 185 1.0 4.0 0.00 0.00 0.00 65 1021.2
20260905105458 73 161 3.0 8.0 0.00 0.00 0.00 75 1021.3
20260905104950 72 145 2.0 5.0 0.00 0.00 0.00 68 1021.2
20260905104442 71 57 0.0 1.0 0.00 0.00 0.00 93 1021.2
20260905103934 73 157 1.0 5.0 0.00 0.00 0.00 98 1021.2
20260905103426 75 162 1.0 4.0 0.00 0.00 0.00 89 1021.2
20260905102918 76 168 1.0 3.0 0.00 0.00 0.00 99 1021.0
20260905102410 73 162 1.0 3.0 0.00 0.00 0.00 87 1021.2
20260905101902 72 199 1.0 3.0 0.00 0.00 0.00 100 1021.2
20260905101354 73 179 1.0 2.0 0.00 0.00 0.00 100 1021.2
20260905100846 74 185 1.0 4.0 0.00 0.00 0.00 84 1021.2
20260905100338 75 175 1.0 6.0 0.00 0.00 0.00 93 1021.2
20260905095829 78 166 1.0 3.0 0.00 0.00 0.00 94 1021.1
20260905095321 79 180 1.0 5.0 0.00 0.00 0.00 79 1021.1
20260905094813 79 177 2.0 6.0 0.00 0.00 0.00 87 1021.0
20260905094305 78 210 1.0 4.0 0.00 0.00 0.00 100 1021.0
20260905093756 77 178 1.0 4.0 0.00 0.00 0.00 99 1021.0
20260905093248 76 161 2.0 6.0 0.00 0.00 0.00 96 1021.1
20260905092740 76 159 1.0 8.0 0.00 0.00 0.00 75 1021.1
20260905092232 76 189 1.0 4.0 0.00 0.00 0.00 97 1021.1
20260905091724 76 220 1.0 6.0 0.00 0.00 0.00 100 1021.1
20260905091216 75 149 1.0 2.0 0.00 0.00 0.00 100 1021.2
20260905090708 74 169 1.0 5.0 0.00 0.00 0.00 97 1021.2
20260905090200 74 114 1.0 4.0 0.00 0.00 0.00 100 1021.2
20260905085652 74 190 0.0 2.0 0.00 0.00 0.00 100 1021.1
20260905085144 73 162 0.0 1.0 0.00 0.00 0.00 100 1021.1
20260905084636 72 158 0.0 2.0 0.00 0.00 0.00 100 1021.0
20260905084128 71 131 1.0 3.0 0.00 0.00 0.00 100 1021.1
20260905083620 70 175 1.0 3.0 0.00 0.00 0.00 100 1021.0
20260905083112 69 192 1.0 5.0 0.00 0.00 0.00 100 1021.0
20260905082605 68 160 0.0 2.0 0.00 0.00 0.00 100 1020.9
20260905082057 67 216 1.0 5.0 0.00 0.00 0.00 100 1020.9
20260905081549 66 171 0.0 4.0 0.00 0.00 0.00 100 1020.9
20260905081042 65 178 0.0 0.0 0.00 0.00 0.00 100 1020.7
20260905080534 64 141 1.0 5.0 0.00 0.00 0.00 100 1020.7
20260905080026 63 134 0.0 2.0 0.00 0.00 0.00 100 1020.5
20260905075519 62 139 0.0 2.0 0.00 0.00 0.00 100 1020.6
20260905075012 62 135 0.0 1.0 0.00 0.00 0.00 100 1020.5
20260905074504 61 167 0.0 0.0 0.00 0.00 0.00 100 1020.5
20260905073957 61 198 0.0 1.0 0.00 0.00 0.00 100 1020.4
20260905073450 59 189 0.0 0.0 0.00 0.00 0.00 100 1020.4
20260905072942 57 121 0.0 0.0 0.00 0.00 0.00 100 1020.5
20260905072435 55 221 0.0 0.0 0.00 0.00 0.00 100 1020.4
20260905071928 55 222 0.0 0.0 0.00 0.00 0.00 100 1020.4
20260905071420 55 184 0.0 0.0 0.00 0.00 0.00 100 1020.2
20260905070913 54 196 0.0 0.0 0.00 0.00 0.00 100 1020.2
20260905070406 54 90 0.0 0.0 0.00 0.00 0.00 100 1020.2
20260905065859 54 177 0.0 0.0 0.00 0.00 0.00 100 1020.0
20260905065352 54 180 0.0 0.0 0.00 0.00 0.00 100 1019.9
20260905064844 53 181 0.0 0.0 0.00 0.00 0.00 100 1019.9
20260905064337 53 206 0.0 0.0 0.00 0.00 0.00 100 1019.9
20260905063830 53 180 0.0 0.0 0.00 0.00 0.00 100 1019.9
20260905063323 53 193 0.0 1.0 0.00 0.00 0.00 100 1019.8
20260905062816 53 191 0.0 0.0 0.00 0.00 0.00 100 1020.0
20260905062309 53 208 0.0 0.0 0.00 0.00 0.00 100 1019.9
20260905061802 53 207 0.0 0.0 0.00 0.00 0.00 100 1019.9
20260905061254 53 177 0.0 0.0 0.00 0.00 0.00 100 1019.9
20260905060747 53 223 0.0 0.0 0.00 0.00 0.00 100 1020.0
20260905031406 56 183 0.0 0.0 0.00 0.00 0.00 100 1018.3
20260905030859 56 180 0.0 0.0 0.00 0.00 0.00 100 1018.3
20260905030351 57 165 0.0 0.0 0.00 0.00 0.00 100 1017.8
20260905025844 57 180 0.0 0.0 0.00 0.00 0.00 100 1017.8
20260905025337 57 180 0.0 1.0 0.00 0.00 0.00 100 1017.9
20260905024830 57 142 0.0 0.0 0.00 0.00 0.00 100 1017.8
20260905024322 58 174 0.0 2.0 0.00 0.00 0.00 100 1018.3
20260905023815 58 101 0.0 0.0 0.00 0.00 0.00 100 1017.7
20260905023307 58 45 0.0 0.0 0.00 0.00 0.00 100 1017.3
20260905022800 58 201 0.0 0.0 0.00 0.00 0.00 100 1017.2
20260905022253 58 180 0.0 0.0 0.00 0.00 0.00 100 1017.3
20260905021745 58 180 0.0 0.0 0.00 0.00 0.00 100 1017.0
20260905021238 58 180 0.0 0.0 0.00 0.00 0.00 100 1016.9
20260905020731 58 180 0.0 0.0 0.00 0.00 0.00 100 1016.9
20260905020223 59 148 0.0 0.0 0.00 0.00 0.00 100 1016.8
20260905015716 59 135 0.0 0.0 0.00 0.00 0.00 100 1017.2
20260905015209 59 135 0.0 0.0 0.00 0.00 0.00 100 1017.1
20260905014701 60 163 0.0 1.0 0.00 0.00 0.00 99 1017.0
20260905014154 61 180 0.0 0.0 0.00 0.00 0.00 97 1017.0
20260905013646 61 162 0.0 0.0 0.00 0.00 0.00 95 1017.0
20260905013139 61 142 0.0 1.0 0.00 0.00 0.00 94 1016.6
20260905012631 61 180 0.0 0.0 0.00 0.00 0.00 94 1016.5
20260905012124 61 170 0.0 0.0 0.00 0.00 0.00 94 1016.3
20260905011616 61 161 0.0 2.0 0.00 0.00 0.00 93 1016.3
20260905011109 61 115 0.0 3.0 0.00 0.00 0.00 95 1016.4
20260905010601 61 135 0.0 1.0 0.00 0.00 0.00 96 1016.4
20260905010054 61 127 1.0 6.0 0.00 0.00 0.00 97 1016.2
20260905005546 61 144 1.0 3.0 0.00 0.00 0.00 100 1016.3
20260905005039 61 238 0.0 2.0 0.00 0.00 0.00 98 1016.3
20260905004531 62 211 1.0 3.0 0.00 0.00 0.00 94 1016.1
20260905004024 62 315 1.0 4.0 0.00 0.00 0.00 92 1016.1
20260905003516 64 316 1.0 5.0 0.00 0.00 0.00 89 1016.0
20260905003009 65 23 1.0 2.0 0.00 0.00 0.00 83 1015.8
20260905002501 65 352 1.0 3.0 0.00 0.00 0.00 80 1015.5
20260905001953 66 342 1.0 3.0 0.00 0.00 0.00 79 1015.4
20260905001446 67 307 2.0 5.0 0.00 0.00 0.00 77 1015.5
20260905000938 69 348 2.0 4.0 0.00 0.00 0.00 74 1015.1
20260905000432 69 236 0.0 1.0 0.00 0.00 0.00 74 1015.0
20260904235922 69 112 0.0 0.0 0.00 0.00 0.00 73 1014.3
20260904235414 69 132 0.0 3.0 0.00 0.00 0.00 74 1014.2
20260904234907 69 177 0.0 2.0 0.00 0.00 0.00 73 1014.1
20260904234359 69 141 1.0 3.0 0.00 0.00 0.00 73 1013.9
20260904233851 69 161 1.0 2.0 0.00 0.00 0.00 73 1013.9
20260904233344 69 138 1.0 3.0 0.00 0.00 0.00 72 1013.8
20260904232836 69 137 1.0 2.0 0.00 0.00 0.00 71 1013.7
20260904232328 69 188 0.0 1.0 0.00 0.00 0.00 71 1013.7
20260904231820 69 182 1.0 3.0 0.00 0.00 0.00 71 1013.6